Regional Weather Roundup
Issued by NWS

Home | Current Version | Previous Version | Graphics & Text | Print | Product List | Glossary On
Versions: 1 2 3 4 5 6 7 8 9 10 11 12 13 14 15 16 17 18 19 20 21 22 23 24 25 26 27 28 29 30 31 32 33 34 35 36 37 38 39 40 41 42 43 44 45 46 47 48 49 50
000
ASUS43 KBIS 300410
RWRND

NORTH DAKOTA REGIONAL WEATHER ROUNDUP
NATIONAL WEATHER SERVICE BISMARCK ND
1100 PM CDT MON JUN 29 2015

NOTE: "FAIR" INDICATES FEW OR NO CLOUDS BELOW 12,000 FEET WITH NO
SIGNIFICANT WEATHER AND/OR OBSTRUCTIONS TO VISIBILITY.


NDZ001>003-009>011-017-300500-
NORTHWEST NORTH DAKOTA

CITY           SKY/WX    TMP DP  RH WIND       PRES   REMARKS
WILLISTON      CLOUDY    75  54  47 N16       29.98R HAZE
MINOT          CLOUDY    72  62  71 E7        29.92R
MINOT AFB      CLEAR     73  66  78 E6        29.92R
$$

NDZ018>021-031>035-040>046-300500-
SOUTHWEST NORTH DAKOTA

CITY           SKY/WX    TMP DP  RH WIND       PRES   REMARKS
BISMARCK       PTCLDY    75  64  68 E6        29.92R
DICKINSON      MOCLDY    73  65  75 NE7       29.94R
GARRISON         N/A     75  64  68 SE3       29.92R
HETTINGER ARPT MOCLDY    71  64  78 NW3       29.96R
$$

NDZ004>008-012>016-024-026-027-054-300500-
NORTHEAST NORTH DAKOTA

CITY           SKY/WX    TMP DP  RH WIND       PRES   REMARKS
GRAND FORKS    CLOUDY    61  58  90 N3        29.91S
GRND FRKS AFB  CLEAR     61  59  92 N6        29.93R
DEVILS LAKE    MOCLDY    64  57  77 E5        29.94S
$$

NDZ022-023-025-028>030-036>039-047>053-300500-
SOUTHEAST NORTH DAKOTA

CITY           SKY/WX    TMP DP  RH WIND       PRES   REMARKS
FARGO          CLEAR     66  61  84 N8        29.90R
JAMESTOWN      CLOUDY    68  62  81 NE8       29.93R
$$




USA.gov is the U.S. government's official web portal to all federal, state and local government web resources and services.